Regional Weather Roundup
Issued by NWS

Home | Current Version | Previous Version | Graphics & Text | Print | Product List | Glossary On
Versions: 1 2 3 4 5 6 7 8 9 10 11 12 13 14 15 16 17 18 19 20 21 22 23 24 25 26 27 28 29 30 31 32 33 34 35 36 37 38 39 40 41 42 43 44 45 46 47 48 49 50
277
ASUS43 KFSD 301002
RWRSD

WEATHER ROUNDUP FOR SOUTH DAKOTA
NATIONAL WEATHER SERVICE SIOUX FALLS SD
500 AM CDT TUE AUG 30 2016

NOTE: "FAIR" INDICATES FEW OR NO CLOUDS BELOW 12,000 FEET WITH NO
SIGNIFICANT WEATHER AND/OR OBSTRUCTIONS TO VISIBILITY.


SDZ001>005-009-010-012>017-301100-
NORTHWEST AND NORTH CENTRAL SOUTH DAKOTA

CITY           SKY/WX    TMP DP  RH WIND       PRES   REMARKS
BUFFALO          N/A     60  50  69 CALM      30.19F
FAITH            N/A     57  54  89 NE7       30.24S
MOBRIDGE       CLEAR     59  52  77 CALM      30.21R
$$

SDZ012>016-024>037-041>051-057-063-072>074-301100-
SOUTHWEST AND SOUTH CENTRAL SOUTH DAKOTA

CITY           SKY/WX    TMP DP  RH WIND       PRES   REMARKS
RAPID CTY ARPT CLOUDY    66  63  90 NE3       30.25F
PIERRE         CLOUDY    64  58  80 NE10      30.17S
CUSTER         FOG       58  56  93 NW5       30.37F VSB 1/4
ELLSWORTH AFB  MOCLDY    67  64  91 E2        30.25
PHILIP         CLEAR     62  61  96 N8        30.20S
PINE RIDGE     CLEAR     56  55  97 CALM      30.24S
WINNER         FAIR      67  63  87 CALM      30.17S
$$

SDZ004>011-016>023-039-040-301100-
NORTHEAST SOUTH DAKOTA

CITY           SKY/WX    TMP DP  RH WIND       PRES   REMARKS
ABERDEEN       CLOUDY    57  53  86 N7        30.23S
WATERTOWN      CLOUDY    66  60  81 N3        30.23R
SISSETON         N/A     55  53  93 NW3       30.22S
$$

SDZ017-020-022-023-036>040-048>070-301100-
SOUTHEAST SOUTH DAKOTA

CITY           SKY/WX    TMP DP  RH WIND       PRES   REMARKS
SIOUX FALLS    CLOUDY    68  66  93 CALM      30.19S
HURON          PTCLDY    70  68  93 E9        30.18R
CHAMBERLAIN    MOCLDY    68  67  95 NE3       30.17S
MITCHELL       CLOUDY    68  67  96 E5        30.18R
YANKTON        CLOUDY    66  63  88 E6        30.17R
$$

ABBREVIATIONS USED IN REMARKS
   TC - TEMPERATURE IN CELSIUS
  WCI - WIND CHILL INDEX
   HX - HEAT INDEX
  VSB - VISIBILITY





USA.gov is the U.S. government's official web portal to all federal, state and local government web resources and services.